Vorticity
11 17 21 20 16 22 16 7 6 6 4 4 5 6 5 8 12 13 13 13 13 13 12 11 11 10 9 9 9 7 6 6 7 5 7 7 10 7 9 10 10 10 13 21 16 11 19 15 -8 -35 44 -34 56 47
24 22 18 21 17 7 6 5 2 4 4 7 5 13 14 13 17 17 12 8 9 8 4 11 17 29 27 17 15 16 15 14 14 19 19 19 18 13 4 15 8 20 14 19 16 33 11 23 13 7 -2 18 6 9
17 21 15 7 6 5 2 3 7 3 7 8 16 15 17 8 7 8 12 5 8 2 10 12 12 10 11 11 9 12 17 25 21 19 15 14 13 10 11 13 8 16 12 -3 11 18 -25 20 25 26 28 21 -3 -5
11 6 6 4 4 3 6 4 4 6 9 17 14 11 3 14 9 10 13 11 5 27 20 29 22 23 17 15 27 35 17 17 15 18 16 32 31 38 35 44 39 6 -10 12 26 12 21 1 7 16 11 14 19 24
6 5 4 2 7 5 4 4 6 8 15 18 10 10 14 11 12 21 41 24 28 23 -1 17 22 27 14 19 13 2 -0 9 10 14 27 21 23 26 15 -5 28 9 23 0 4 16 16 15 4 2 2 -6 1 28
5 6 9 6 3 2 2 6 9 15 21 4 13 17 10 12 18 24 18 12 14 10 18 31 9 14 19 22 16 5 10 29 -3 31 12 9 16 -5 39 9 21 31 28 18 16 2 0 10 9 11 6 9 8 19
6 6 4 2 2 4 9 9 16 20 7 13 16 13 11 10 11 9 12 9 11 11 12 24 16 1 10 10 12 10 5 6 22 7 18 15 8 4 2 13 5 2 1 1 4 0 -0 -5 -6 13 6 17 5 20
1 2 2 3 8 9 7 18 21 11 11 10 21 8 11 10 9 5 12 20 14 13 5 19 22 4 7 7 10 10 7 14 13 15 13 6 5 2 4 17 2 -8 -3 -4 1 6 2 3 11 9 7 16 29 12
4 6 9 8 6 13 23 18 8 11 9 23 7 8 13 13 12 6 13 17 10 12 22 16 2 11 7 3 -2 14 14 16 2 3 5 4 7 11 6 -1 4 -2 6 18 16 19 11 26 47 7 22 18 13 12
9 9 12 17 23 20 10 10 10 12 23 12 7 14 17 22 22 25 26 34 27 27 12 6 -0 15 4 13 2 16 26 3 10 22 14 18 21 20 26 49 25 26 4 22 25 28 33 44 21 9 18 23 16 7
19 21 19 13 18 17 13 10 14 22 6 9 24 19 20 18 16 18 15 13 24 27 23 21 24 40 27 21 12 10 15 13 4 11 7 14 29 40 15 5 11 27 20 -2 29 24 22 30 13 -1 3 10 14 11
13 12 13 14 14 11 9 16 14 6 23 21 20 10 7 6 6 11 15 12 -1 20 24 19 24 24 12 -1 20 14 12 23 10 12 20 26 18 17 -2 39 15 24 46 15 6 29 13 -0 3 6 5 27 11 7
10 19 8 14 10 4 11 10 16 27 18 13 8 5 13 21 9 14 7 12 20 -1 4 12 14 20 -0 2 18 16 12 5 22 6 21 2 5 -14 5 35 35 18 16 29 31 41 12 4 3 -2 29 1 2 23
9 6 6 12 9 11 12 16 19 23 10 7 4 7 8 7 3 6 4 -2 9 17 19 13 14 18 15 11 4 8 9 8 5 10 7 -2 2 11 19 22 28 6 19 8 25 26 29 5 11 23 -1 9 14 37
13 14 13 11 15 16 11 24 21 10 5 3 4 7 -3 0 2 7 16 17 25 12 5 18 11 13 11 11 11 -0 3 2 -0 7 2 7 8 17 24 27 15 10 12 18 21 18 19 15 8 7 6 39 16 8
10 9 16 23 18 7 26 24 6 8 4 3 1 -0 -0 4 6 11 19 12 7 2 1 20 3 -4 4 11 3 2 2 12 12 8 6 8 18 16 19 23 12 7 12 17 14 12 7 13 18 25 17 8 7 5
16 23 13 4 19 27 19 13 3 3 5 1 1 -9 11 10 4 27 3 6 3 4 10 7 -2 -0 -0 2 9 14 12 5 12 9 10 16 17 16 23 14 15 10 6 8 9 9 10 9 17 10 8 6 4 5
4 2 16 28 20 19 20 10 3 5 6 4 -3 4 7 5 -1 16 17 7 3 6 9 8 13 6 10 9 9 14 11 8 8 7 6 15 16 18 14 12 28 14 9 6 4 3 5 8 15 9 9 5 6 5
21 19 16 13 16 14 8 7 4 4 7 0 3 -4 3 5 5 8 9 6 7 11 11 2 6 9 11 13 11 12 13 14 15 9 7 10 18 22 17 9 5 25 28 9 9 6 4 17 15 10 9 4 5 9
25 24 21 21 13 13 9 9 7 3 8 1 4 3 2 5 4 9 9 8 8 6 4 3 8 7 8 10 12 13 13 10 11 14 15 9 15 20 16 17 9 8 10 30 27 23 20 12 6 3 5 5 13 11
9 7 6 6 7 6 14 16 8 3 6 3 5 2 4 5 6 11 7 6 7 6 3 5 3 3 5 7 8 11 12 12 8 9 13 10 9 12 17 15 12 12 9 7 5 5 6 9 6 6 5 14 8 5
7 10 14 8 8 10 6 10 12 11 4 7 8 7 5 7 8 8 4 3 3 4 3 2 3 4 5 6 6 5 6 8 9 10 9 9 11 10 11 18 13 11 11 14 2 5 9 9 7 8 13 7 5 2
5 6 6 7 10 11 7 3 5 6 9 10 5 6 6 5 5 6 7 5 5 4 4 5 5 4 4 3 5 5 5 7 8 9 10 11 10 10 11 11 16 11 8 8 9 14 8 3 6 10 8 5 5 2
14 10 10 13 12 10 9 8 6 6 6 7 9 7 8 8 9 9 7 8 9 9 8 6 5 6 8 7 6 6 7 9 9 9 11 12 11 12 13 14 14 14 11 12 9 7 10 9 8 8 7 5 4 4
16 10 10 8 8 6 4 5 9 12 13 16 20 23 24 25 22 19 22 23 19 16 13 12 10 9 8 6 8 8 7 8 9 12 9 11 12 14 14 14 17 16 11 10 15 10 6 8 9 7 6 6 5 -3
7 10 10 12 13 13 13 13 12 10 9 9 9 7 7 7 6 5 3 5 6 8 11 13 16 20 24 27 26 27 25 18 12 9 8 10 11 12 14 13 16 15 14 12 8 10 9 5 5 7 5 8 1 3
10 8 7 9 7 6 10 13 12 14 15 16 15 15 12 10 9 10 10 8 7 7 7 9 9 8 8 7 7 7 10 16 23 27 23 13 11 12 14 14 10 13 13 12 11 9 7 7 6 5 6 8 3 1
10 10 12 12 8 8 10 9 10 12 15 14 14 14 16 16 14 12 11 11 12 14 14 13 13 13 15 15 15 14 9 8 10 9 8 17 25 15 12 17 12 12 7 12 16 10 14 6 11 13 9 12 6 12
10 8 8 8 13 15 14 12 13 12 12 11 13 15 14 14 16 14 12 13 14 13 13 13 12 10 12 13 14 15 19 19 15 12 13 11 12 17 22 11 16 8 4 17 14 21 11 17 18 -0 -2 8 15 22
7 4 7 11 12 14 15 14 14 16 15 14 14 13 16 16 10 13 14 13 12 14 16 17 17 17 15 16 12 11 15 19 21 21 19 14 9 13 21 20 13 12 17 17 14 16 15 8 1 -6 15 20 11 2
8 14 15 10 15 17 13 12 15 14 16 15 13 12 14 15 15 13 13 13 14 14 14 13 14 15 17 17 15 14 14 17 20 18 18 15 12 21 21 23 20 12 5 23 20 4 7 20 22 16 -7 16 4 -1
18 16 15 17 18 16 16 16 16 19 19 18 18 16 16 16 13 13 11 12 12 13 14 13 13 15 16 14 12 16 19 20 20 21 22 23 28 32 34 29 20 21 14 10 20 10 2 4 -1 -3 24 8 6 15
21 17 14 15 14 14 16 16 16 16 20 22 20 20 20 15 13 12 14 11 11 13 12 13 13 14 14 12 14 12 18 22 29 28 25 27 30 34 32 24 16 18 22 9 12 14 20 24 20 12 11 8 10 22
Height
5425 5428 5431 5434 5437 5441 5444 5447 5450 5453 5454 5455 5456 5457 5457 5456 5456 5456 5456 5456 5456 5459 5461 5460 5460 5462 5463 5463 5464 5465 5465 5469 5468 5467 5466 5467 5466 5470 5468 5475 5478 5476 5474 5475 5476 5473 5472 5489 5486 5485 5484 5486 5485 5488
5418 5422 5426 5430 5434 5438 5442 5444 5447 5448 5450 5450 5450 5450 5449 5448 5448 5447 5447 5447 5445 5446 5451 5449 5450 5451 5450 5449 5451 5453 5456 5457 5456 5456 5455 5455 5455 5456 5458 5460 5467 5464 5466 5466 5465 5465 5473 5473 5472 5472 5473 5476 5478 5479
5414 5419 5423 5428 5432 5435 5438 5441 5442 5443 5444 5444 5443 5442 5442 5441 5441 5441 5441 5441 5438 5435 5435 5439 5443 5439 5439 5440 5439 5442 5445 5445 5444 5443 5441 5441 5439 5446 5446 5450 5452 5456 5458 5454 5454 5462 5461 5462 5462 5464 5465 5468 5468 5470
5413 5418 5422 5426 5429 5432 5434 5436 5437 5437 5437 5436 5436 5436 5435 5435 5434 5432 5431 5430 5428 5427 5426 5433 5429 5429 5429 5430 5431 5433 5435 5435 5436 5435 5433 5431 5431 5434 5438 5440 5441 5448 5448 5448 5447 5452 5452 5453 5455 5456 5457 5458 5459 5461
5412 5416 5420 5423 5425 5428 5430 5431 5431 5430 5430 5429 5429 5429 5428 5427 5426 5424 5421 5420 5420 5420 5421 5423 5421 5423 5424 5424 5426 5429 5430 5430 5430 5430 5428 5427 5427 5430 5432 5433 5438 5438 5439 5439 5441 5441 5442 5447 5448 5447 5448 5449 5449 5449
5410 5413 5416 5419 5422 5423 5424 5425 5424 5424 5423 5423 5423 5422 5422 5421 5419 5417 5416 5416 5415 5415 5416 5416 5418 5418 5419 5421 5423 5424 5425 5424 5423 5424 5426 5425 5426 5426 5425 5429 5432 5429 5430 5431 5434 5435 5437 5440 5440 5441 5441 5441 5442 5443
5407 5410 5413 5415 5417 5418 5418 5418 5417 5417 5417 5417 5417 5417 5417 5416 5415 5414 5414 5413 5413 5412 5412 5413 5415 5417 5417 5418 5419 5420 5420 5420 5420 5420 5422 5423 5423 5420 5421 5426 5431 5428 5427 5427 5428 5427 5429 5430 5432 5432 5431 5432 5433 5433
5402 5405 5407 5409 5411 5411 5411 5412 5411 5412 5413 5412 5412 5413 5412 5411 5410 5410 5410 5410 5409 5409 5409 5411 5414 5415 5416 5417 5417 5418 5417 5416 5418 5419 5420 5420 5418 5416 5412 5425 5425 5421 5418 5418 5417 5413 5416 5420 5420 5423 5423 5424 5426 5428
5396 5399 5401 5403 5404 5405 5406 5406 5407 5408 5408 5408 5409 5409 5408 5408 5407 5406 5405 5405 5405 5406 5406 5409 5412 5414 5414 5415 5415 5415 5414 5414 5415 5415 5415 5413 5414 5409 5411 5410 5411 5412 5408 5407 5404 5402 5401 5404 5408 5411 5414 5416 5418 5421
5390 5393 5395 5397 5399 5400 5401 5403 5404 5405 5405 5405 5405 5406 5405 5405 5405 5404 5403 5402 5402 5403 5405 5408 5409 5410 5411 5411 5411 5411 5410 5410 5410 5411 5408 5406 5406 5403 5401 5400 5401 5401 5398 5396 5393 5394 5393 5395 5398 5403 5407 5409 5412 5414
5383 5387 5390 5393 5395 5396 5398 5400 5401 5402 5402 5403 5404 5404 5405 5405 5405 5405 5404 5404 5404 5405 5404 5406 5406 5407 5408 5407 5407 5406 5406 5406 5406 5407 5404 5402 5401 5399 5397 5396 5393 5391 5389 5388 5386 5389 5389 5390 5395 5400 5403 5404 5405 5407
5380 5383 5387 5390 5392 5394 5396 5398 5399 5400 5401 5403 5404 5406 5407 5407 5407 5406 5406 5406 5406 5406 5406 5407 5407 5407 5406 5406 5406 5407 5406 5405 5404 5403 5401 5399 5397 5396 5394 5389 5385 5381 5381 5380 5380 5383 5387 5390 5393 5396 5399 5400 5402 5402
5378 5382 5385 5388 5390 5393 5394 5396 5398 5400 5402 5404 5406 5408 5408 5409 5408 5408 5407 5407 5407 5407 5407 5407 5406 5405 5405 5404 5403 5404 5403 5403 5401 5400 5397 5396 5394 5391 5386 5380 5378 5377 5374 5373 5373 5376 5383 5386 5390 5392 5395 5396 5398 5398
5377 5381 5384 5387 5389 5392 5394 5397 5399 5401 5404 5407 5409 5410 5411 5410 5410 5408 5408 5407 5407 5407 5407 5405 5405 5404 5405 5404 5404 5403 5403 5401 5400 5398 5396 5393 5389 5386 5382 5378 5377 5376 5374 5373 5373 5375 5379 5383 5386 5389 5391 5392 5394 5394
5379 5382 5385 5387 5389 5392 5395 5397 5399 5403 5406 5408 5410 5411 5412 5412 5411 5410 5409 5408 5408 5406 5405 5406 5406 5406 5406 5405 5404 5403 5401 5400 5398 5397 5394 5391 5387 5383 5381 5378 5377 5377 5377 5376 5376 5378 5380 5383 5385 5387 5389 5390 5392 5394
5382 5384 5385 5388 5390 5393 5395 5398 5401 5405 5407 5409 5411 5413 5413 5412 5411 5410 5410 5409 5408 5407 5406 5407 5407 5406 5406 5405 5404 5403 5401 5399 5397 5394 5391 5388 5385 5382 5379 5377 5377 5377 5378 5378 5378 5380 5382 5383 5384 5385 5387 5389 5392 5393
5384 5386 5387 5389 5391 5392 5395 5399 5402 5406 5408 5410 5412 5413 5413 5413 5412 5411 5411 5409 5409 5408 5407 5407 5406 5405 5405 5403 5401 5400 5398 5396 5394 5392 5388 5385 5382 5380 5378 5376 5376 5377 5377 5378 5379 5380 5381 5382 5383 5384 5386 5388 5390 5392
5387 5388 5388 5390 5393 5395 5398 5401 5404 5407 5409 5410 5412 5413 5413 5413 5412 5411 5410 5409 5408 5407 5406 5405 5404 5403 5401 5400 5398 5396 5394 5392 5390 5388 5385 5383 5380 5378 5377 5376 5374 5374 5375 5376 5377 5378 5379 5381 5382 5383 5385 5386 5388 5389
5389 5390 5392 5393 5395 5397 5401 5404 5406 5407 5409 5410 5411 5412 5412 5411 5410 5409 5407 5406 5405 5404 5404 5403 5401 5400 5398 5396 5394 5393 5391 5389 5387 5385 5382 5380 5377 5375 5374 5374 5373 5373 5372 5373 5374 5375 5377 5378 5379 5381 5383 5384 5385 5386
5396 5396 5397 5398 5400 5401 5403 5405 5406 5408 5409 5410 5409 5410 5409 5408 5408 5406 5405 5404 5402 5401 5401 5399 5398 5396 5395 5393 5391 5389 5387 5385 5383 5381 5378 5376 5374 5372 5371 5371 5371 5371 5371 5370 5370 5371 5372 5374 5376 5378 5379 5380 5381 5382
5402 5403 5403 5403 5404 5405 5406 5406 5406 5407 5408 5407 5406 5406 5406 5404 5403 5402 5401 5399 5398 5397 5396 5394 5393 5391 5390 5388 5386 5384 5382 5380 5378 5377 5375 5373 5371 5370 5369 5368 5368 5368 5368 5368 5369 5369 5371 5372 5373 5374 5374 5375 5376 5376
5407 5406 5406 5406 5406 5406 5406 5406 5406 5405 5404 5403 5402 5400 5400 5399 5397 5396 5395 5393 5391 5390 5388 5387 5385 5384 5383 5381 5380 5378 5377 5375 5373 5371 5370 5369 5367 5366 5364 5364 5363 5363 5363 5364 5364 5365 5366 5367 5367 5368 5368 5369 5370 5370
5408 5407 5407 5406 5406 5405 5406 5402 5401 5399 5397 5397 5395 5393 5393 5391 5389 5388 5387 5385 5383 5381 5379 5378 5376 5374 5373 5372 5371 5369 5368 5366 5365 5364 5362 5361 5360 5359 5358 5357 5357 5357 5357 5357 5358 5359 5359 5360 5361 5361 5361 5361 5362 5362
5406 5404 5402 5401 5400 5399 5398 5396 5394 5392 5390 5388 5385 5384 5383 5381 5378 5377 5376 5375 5373 5370 5368 5367 5365 5364 5362 5361 5360 5358 5357 5355 5354 5353 5352 5351 5350 5349 5349 5348 5348 5349 5349 5350 5350 5351 5352 5353 5353 5353 5353 5353 5353 5353
5404 5402 5399 5397 5394 5392 5390 5388 5385 5382 5379 5377 5375 5372 5370 5367 5365 5364 5365 5362 5359 5357 5355 5353 5351 5349 5348 5348 5346 5344 5341 5342 5342 5342 5340 5340 5339 5339 5338 5338 5338 5338 5339 5341 5342 5342 5343 5344 5344 5344 5344 5344 5344 5343
5399 5397 5394 5391 5388 5385 5381 5379 5376 5372 5369 5367 5365 5362 5358 5354 5353 5352 5351 5347 5346 5344 5342 5340 5338 5337 5334 5331 5330 5330 5329 5326 5326 5327 5326 5326 5326 5326 5326 5326 5327 5327 5328 5329 5330 5331 5332 5333 5333 5334 5334 5334 5334 5333
5395 5391 5388 5384 5379 5375 5372 5370 5366 5361 5358 5354 5352 5350 5346 5341 5340 5340 5336 5333 5331 5330 5330 5328 5325 5323 5322 5320 5317 5316 5314 5312 5310 5310 5311 5311 5311 5312 5313 5313 5314 5315 5315 5316 5318 5319 5320 5321 5322 5323 5323 5323 5323 5323
5388 5384 5380 5376 5370 5366 5362 5358 5353 5349 5347 5343 5339 5336 5332 5331 5328 5324 5321 5318 5317 5316 5314 5311 5309 5307 5306 5304 5302 5301 5300 5297 5297 5296 5296 5296 5296 5297 5298 5300 5301 5302 5303 5304 5305 5306 5308 5309 5310 5311 5312 5312 5312 5311
5379 5373 5370 5366 5360 5355 5351 5344 5340 5337 5332 5329 5324 5322 5321 5318 5314 5309 5306 5305 5303 5299 5298 5297 5295 5292 5290 5288 5285 5283 5282 5281 5280 5280 5280 5281 5281 5280 5282 5284 5286 5288 5290 5292 5293 5295 5296 5297 5299 5300 5300 5300 5300 5300
5367 5361 5356 5351 5347 5343 5338 5329 5325 5322 5318 5314 5309 5306 5305 5303 5298 5296 5294 5291 5287 5286 5284 5281 5278 5276 5275 5274 5272 5269 5264 5262 5262 5262 5263 5264 5264 5264 5265 5268 5271 5274 5276 5279 5281 5283 5285 5286 5286 5287 5288 5289 5289 5288
5354 5348 5342 5336 5332 5327 5319 5314 5310 5306 5302 5298 5294 5289 5288 5285 5284 5282 5279 5276 5274 5272 5269 5266 5263 5260 5259 5256 5254 5253 5251 5245 5243 5243 5243 5245 5245 5246 5247 5250 5254 5258 5262 5265 5268 5270 5272 5274 5275 5276 5277 5277 5277 5277
5340 5334 5326 5321 5318 5312 5305 5300 5295 5291 5287 5283 5279 5274 5272 5269 5267 5265 5263 5261 5259 5256 5255 5252 5250 5247 5243 5241 5238 5235 5233 5231 5227 5224 5223 5223 5224 5225 5228 5232 5238 5243 5247 5251 5255 5257 5260 5262 5263 5264 5265 5266 5266 5267
5324 5317 5310 5304 5299 5294 5289 5283 5278 5275 5273 5268 5264 5260 5257 5254 5252 5250 5249 5247 5245 5243 5240 5238 5235 5232 5230 5227 5224 5220 5216 5213 5209 5207 5205 5205 5206 5209 5213 5219 5224 5229 5232 5236 5240 5244 5246 5248 5250 5251 5253 5254 5255 5255